This is the latest recevied weather packets stored in our database for station/object SV9TNF-52. If no packets are shown the sender has not sent any weather packets the latest 10 day(s).
| Time | Temp. | Humidity | Pressure | Rain* | Wind** | Luminosity | Snow |
|---|---|---|---|---|---|---|---|
| 1787855200 | 26.67° C | 71% | 1020.3 hPa | 0 mm | 4.02 m/s, 217° | - | - |
| 1787854900 | 26.67° C | 71% | 1020.3 hPa | 0 mm | 5.81 m/s, 194° | - | - |
| 1787854599 | 26.67° C | 70% | 1020.3 hPa | 0 mm | 3.13 m/s, 216° | - | - |
| 1787854299 | 26.67° C | 70% | 1020.3 hPa | 0 mm | 4.92 m/s, 248° | - | - |
| 1787853999 | 26.67° C | 70% | 1020.3 hPa | 0 mm | 5.81 m/s, 197° | - | - |
| 1787853699 | 27.22° C | 70% | 1020.3 hPa | 0 mm | 0.89 m/s, 237° | - | - |
| 1787853399 | 27.22° C | 70% | 1020.3 hPa | 0 mm | 0.45 m/s, 176° | - | - |
| 1787853099 | 27.22° C | 70% | 1020.3 hPa | 0 mm | 3.13 m/s, 173° | - | - |
| 1787852799 | 27.78° C | 70% | 1020.3 hPa | 0 mm | 0 m/s | - | - |
| 1787852499 | 27.78° C | 70% | 1020.3 hPa | 0 mm | 0.45 m/s, 158° | - | - |
| 1787852199 | 27.78° C | 70% | 1020.3 hPa | 0 mm | 0 m/s | - | - |
| 1787851899 | 27.78° C | 70% | 1020.3 hPa | 0 mm | 0 m/s | - | - |
| 1787851599 | 27.78° C | 70% | 1020.3 hPa | 0 mm | 2.68 m/s, 261° | - | - |
| 1787851299 | 27.78° C | 70% | 1020 hPa | 0 mm | 1.79 m/s, 297° | - | - |
| 1787850998 | 27.78° C | 70% | 1020 hPa | 0 mm | 1.79 m/s, 233° | - | - |
| 1787850698 | 28.33° C | 70% | 1020 hPa | 0 mm | 2.68 m/s, 314° | - | - |
| 1787850398 | 28.33° C | 70% | 1020 hPa | 0 mm | 2.24 m/s, 316° | - | - |
| 1787850098 | 28.33° C | 70% | 1020 hPa | 0 mm | 1.34 m/s, 333° | - | - |
| 1787849798 | 28.33° C | 70% | 1020.3 hPa | 0 mm | 4.02 m/s, 322° | - | - |
| 1787849498 | 28.33° C | 70% | 1020.3 hPa | 0 mm | 1.79 m/s, 249° | - | - |
| 1787849203 | 28.33° C | 70% | 1020 hPa | 0 mm | 3.58 m/s, 47° | - | - |
| 1787848898 | 28.33° C | 69% | 1020 hPa | 0 mm | 3.13 m/s, 218° | - | - |
| 1787848598 | 28.33° C | 69% | 1020 hPa | 0 mm | 3.13 m/s, 13° | - | - |
| 1787848297 | 28.89° C | 68% | 1020 hPa | 0 mm | 6.26 m/s, 0° | - | - |
| 1787847997 | 29.44° C | 68% | 1020 hPa | 0 mm | 1.79 m/s, 268° | - | - |
* Rain latest hour (hover to see other rain measurements)
** Current wind speed in m/s (hover to see current wind gust speed)